Content
SEND FEEDBACK

Daily
Averages
Monthly
Summary
France

LE HAVRE, FRANCE


Home > Europe > France
Elevation: 338 feet     Latitude: 49 31N     Longitude: 000 04E

WEATHER
 
SELECT A DAY
Number of Records: 176,847;   Date Range: 3/4/97 - 9/5/14
 
SHARE

PRINT THIS DATA

[ ← Previous Day ]
WEATHER ALMANAC - MARCH 25, 2013
[ Next Day → ]
[ °C ]   °F
Weather ElementAverageHighLow
Temperature35.8 °F39.2 °F (12:30 pm)33.8 °F (12:30 am)
Dewpoint27.6 °F30.2 °F (12:30 am)26.6 °F (6:30 am)
Humidity72.7 %87 % (12:30 am)65 % (9:30 am)
Barometer29.81 in29.83 in (7:00 am)29.80 in (12:30 am)
Wind Speed11.2 mph15 mph (2:00 pm)
Weather ElementAverage
Visibility5.7 mi
Wind DirectionENE (60.4 °)

Weather ElementTotal
Precipitation---
Heating Degree Days28.5 (Base 65)
Averaged from 47 records on March 25, 2013
WEATHER CONDITIONS BREAKOUT
WIND DIRECTION BREAKOUT
WEATHER BY HOUR - MARCH 25, 2013
[ °C ]   °F
Local TimeTemperatureDewpointHumidityBarometerVisibilityWind DirectionWind SpeedGust SpeedPrecipitationEventsConditions
12:30 AM33.8 °F30.2 °F87 %29.80 in4.3 miENE (70°)10.4 mphOvercast
1:00 AM33.8 °F30.2 °F87 %29.80 in4.3 miENE (60°)6.9 mphOvercast
1:30 AM33.8 °F28.4 °F81 %29.80 in5.0 miENE (60°)9.2 mphOvercast
2:00 AM33.8 °F28.4 °F81 %29.80 in5.6 miENE (70°)9.2 mphOvercast
2:30 AM33.8 °F28.4 °F81 %29.80 in5.6 miENE (60°)8.1 mphOvercast
3:00 AM33.8 °F28.4 °F81 %29.80 in5.6 miENE (60°)8.1 mphOvercast
3:30 AM33.8 °F28.4 °F81 %29.80 in5.6 miENE (60°)8.1 mphOvercast
4:00 AM33.8 °F28.4 °F81 %29.80 in5.6 miENE (70°)10.4 mphOvercast
4:30 AM33.8 °F28.4 °F81 %29.80 in5.0 miENE (70°)9.2 mphOvercast
5:00 AM33.8 °F28.4 °F81 %29.80 in5.0 miENE (70°)9.2 mphOvercast
5:30 AM33.8 °F28.4 °F81 %29.80 in5.0 miENE (70°)10.4 mphOvercast
6:00 AM33.8 °F28.4 °F81 %29.80 in5.0 miEast (80°)10.4 mphOvercast
6:30 AM33.8 °F26.6 °F75 %29.80 in5.6 miEast (80°)12.7 mphOvercast
7:00 AM35.6 °F26.6 °F70 %29.83 in5.6 miEast (80°)11.5 mphOvercast
7:30 AM33.8 °F26.6 °F75 %29.83 in6.2 miEast (80°)12.7 mphOvercast
8:00 AM35.6 °F26.6 °F70 %29.83 in6.2 miEast (80°)10.4 mphOvercast
8:30 AM35.6 °F26.6 °F70 %29.83 in6.2 miENE (70°)10.4 mphOvercast
9:00 AM35.6 °F26.6 °F70 %29.83 in6.2 miENE (70°)9.2 mphOvercast
9:30 AM37.4 °F26.6 °F65 %29.83 in6.2 miENE (70°)10.4 mphOvercast
10:00 AM37.4 °F26.6 °F65 %29.83 in6.2 miENE (70°)9.2 mphOvercast
10:30 AM37.4 °F26.6 °F65 %29.83 in6.2 miENE (70°)10.4 mphOvercast
11:00 AM37.4 °F26.6 °F65 %29.83 in6.2 miENE (70°)11.5 mph
11:30 AM37.4 °F28.4 °F70 %29.83 in6.2 miENE (60°)10.4 mph
12:00 PM37.4 °F28.4 °F70 %29.83 in6.2 miENE (60°)11.5 mph
12:30 PM39.2 °F28.4 °F65 %29.83 in6.2 miENE (60°)11.5 mph
1:00 PM37.4 °F28.4 °F70 %29.80 in6.2 miENE (60°)11.5 mph
1:30 PM39.2 °F28.4 °F65 %29.83 in6.2 miNE (50°)11.5 mph
2:00 PM37.4 °F28.4 °F70 %29.80 in6.2 miNE (40°)15.0 mph
2:30 PM37.4 °F26.6 °F65 %29.80 in6.2 miNE (40°)15.0 mph
3:00 PM37.4 °F26.6 °F65 %29.80 in6.2 miNE (50°)15.0 mph
3:30 PM37.4 °F26.6 °F65 %29.80 in6.2 miNE (50°)15.0 mph
4:00 PM37.4 °F28.4 °F70 %29.80 in6.2 miENE (60°)13.8 mph
4:30 PM37.4 °F28.4 °F70 %29.80 in6.2 miNE (40°)15.0 mph
5:00 PM37.4 °F28.4 °F70 %29.80 in6.2 miNE (50°)13.8 mph
5:30 PM37.4 °F28.4 °F70 %29.80 in6.2 miNE (50°)13.8 mph
6:00 PM35.6 °F26.6 °F70 %29.80 in6.2 miENE (60°)13.8 mph
6:30 PM35.6 °F26.6 °F70 %29.80 in6.2 miENE (60°)11.5 mph
7:00 PM35.6 °F26.6 °F70 %29.80 in6.2 miNE (50°)13.8 mph
7:30 PM35.6 °F26.6 °F70 %29.80 in6.2 miENE (60°)11.5 mph
8:00 PM35.6 °F28.4 °F75 %29.80 in6.2 miNE (50°)10.4 mph
8:30 PM35.6 °F26.6 °F70 %29.80 in5.6 miNE (50°)11.5 mph
9:00 PM35.6 °F28.4 °F75 %29.80 in5.6 miNE (50°)10.4 mph
9:30 PM35.6 °F28.4 °F75 %29.80 in5.0 miNE (50°)11.5 mph
10:00 PM35.6 °F26.6 °F70 %29.80 in5.6 miNE (50°)10.4 mph
10:30 PM35.6 °F26.6 °F70 %29.80 in5.0 miNE (50°)10.4 mph
11:00 PM35.6 °F26.6 °F70 %29.80 in5.0 miNE (50°)10.4 mph
11:30 PM33.8 °F26.6 °F75 %29.80 in4.3 miNE (50°)10.4 mph
Hourly data recorded from LFOH, located miles away from Le Havre, France







STORIES FROM OUR PARTNERS